Wind_Speed
124 122 123 121 119 121 119 117 114 112 111 114 113 107 98 89 80 72 77 73 71 71 70 67 67 67 66 71 72 69 70 68 66 64 66 64 67 68 68 70 72 74 73
122 120 119 121 120 119 121 119 117 115 115 114 113 114 108 106 98 86 84 77 80 79 73 67 66 70 72 74 73 72 68 66 66 68 66 66 67 68 69 72 76 80 78
120 120 119 118 120 120 118 119 119 117 117 115 113 109 108 106 110 104 92 88 85 81 78 78 73 71 71 74 75 72 72 72 72 72 70 67 68 72 75 78 79 84 84
116 119 118 116 115 117 118 118 118 120 118 116 114 110 109 107 106 101 99 93 92 87 84 81 79 77 78 80 78 77 75 75 74 74 75 72 77 79 79 76 81 82 85
112 114 120 116 113 112 113 119 117 116 116 118 117 112 106 106 101 96 95 93 91 89 85 82 83 86 88 85 82 82 77 78 78 80 80 83 77 80 79 79 82 89 93
104 111 113 118 112 113 111 112 114 113 114 115 114 109 108 102 101 95 93 92 93 93 90 90 89 91 89 85 86 84 80 81 80 83 86 83 81 85 86 83 89 83 78
107 108 117 118 116 113 111 110 108 113 112 110 113 111 108 104 108 103 96 92 96 93 93 92 95 93 90 88 89 85 83 80 86 87 89 89 89 88 88 85 84 86 82
106 110 118 115 115 112 111 109 107 110 113 108 107 113 106 105 110 112 105 106 102 101 100 99 98 96 96 96 94 93 92 93 91 90 90 91 86 85 91 92 85 86 82
105 106 114 109 109 109 110 109 106 106 104 109 108 108 107 104 107 111 108 105 105 106 108 106 100 100 100 100 97 96 93 91 91 88 90 89 89 91 91 99 97 79 85
107 108 109 105 104 103 106 107 107 106 102 103 106 106 107 108 115 114 113 112 110 109 105 105 101 103 106 108 104 101 95 94 91 94 93 96 97 98 95 96 85 92 93
110 107 108 106 103 103 103 104 103 104 101 101 100 105 109 109 109 110 109 107 105 105 105 107 105 102 100 99 101 100 103 101 103 100 99 99 99 102 97 97 103 105 106
111 112 108 104 102 102 102 104 105 103 105 101 102 113 110 113 113 112 112 102 104 106 107 106 108 107 108 103 100 101 101 102 103 106 106 106 103 105 108 109 113 111 109
113 113 111 106 104 103 102 104 105 106 101 104 103 115 117 114 110 106 102 107 106 106 112 112 114 112 109 109 110 111 110 108 109 108 109 109 112 114 115 117 116 107 108
117 113 110 109 109 107 106 106 106 106 109 102 103 107 121 122 118 110 108 109 109 98 103 104 107 107 107 108 110 115 116 114 112 118 115 110 109 110 112 108 109 113 110
121 118 112 110 110 108 107 108 110 108 107 100 99 103 110 124 127 124 121 118 110 95 95 94 93 92 95 98 99 102 107 109 107 105 106 109 112 113 112 108 117 115 115
123 120 116 113 111 111 110 110 110 108 110 107 105 105 105 113 121 127 127 122 116 115 109 108 107 109 108 112 114 114 116 112 110 113 113 114 115 114 117 120 121 111 104
122 122 122 119 117 116 113 112 113 111 110 112 112 111 109 107 115 121 117 128 131 125 123 117 117 119 115 110 115 113 110 113 115 117 117 115 117 112 116 106 104 101 93
125 127 125 123 121 119 118 115 115 113 113 115 113 112 110 111 113 113 113 112 114 123 126 120 121 125 124 127 126 130 131 119 116 119 120 119 120 119 116 109 110 110 102
130 127 121 121 122 124 123 121 119 117 117 116 115 115 115 114 113 110 110 113 114 117 117 119 127 126 122 117 121 123 121 122 124 126 128 123 118 114 116 116 109 106 108
133 129 128 125 123 125 123 123 123 123 120 120 119 120 118 116 117 116 115 115 116 115 114 113 113 113 113 118 118 117 117 114 114 115 114 116 114 113 113 114 113 114 110
134 133 130 130 127 126 125 126 126 127 125 125 124 124 123 122 120 117 119 120 120 119 117 117 117 116 116 116 116 115 117 115 115 116 120 118 115 115 116 116 115 113 111
141 142 138 137 135 133 134 131 131 130 128 128 128 127 124 124 124 120 120 122 122 123 121 121 122 121 120 119 120 116 115 115 114 115 116 116 116 117 118 117 116 116 115
149 148 144 142 139 137 138 138 135 133 135 132 132 127 125 125 124 124 124 124 124 123 123 121 120 120 119 116 118 115 116 116 115 113 114 116 115 116 117 117 116 114 113
151 148 149 148 146 143 143 139 141 143 140 138 136 132 128 126 125 123 121 122 124 124 120 117 118 119 117 115 117 116 113 114 115 117 116 116 116 115 115 117 116 115 114
152 151 151 151 150 149 149 148 147 145 138 136 131 130 128 130 128 122 122 123 125 123 121 117 116 112 112 109 110 111 115 113 116 114 113 111 111 114 113 115 118 119 120
130 137 144 150 155 154 153 150 147 147 145 144 141 137 132 130 132 131 129 127 125 124 119 118 116 113 115 114 116 114 111 112 112 112 112 108 105 106 103 105 107 105 104
Wind_Direction
212 214 214 214 213 214 217 218 219 219 220 223 223 224 228 227 232 238 236 239 241 248 250 249 253 257 259 262 264 266 269 267 268 270 273 277 281 281 284 284 284 288 288
214 214 216 216 215 215 216 218 220 222 223 224 226 229 231 232 232 239 239 240 242 243 248 251 254 255 258 259 262 266 268 264 265 272 271 277 278 281 285 282 284 286 284
216 216 217 218 218 218 217 218 219 222 224 226 228 230 231 232 234 237 238 243 241 241 247 253 255 255 255 256 259 264 267 268 270 271 276 277 279 282 281 283 283 285 284
216 218 219 219 220 221 220 220 221 222 225 227 228 230 232 233 234 237 240 240 243 243 244 248 251 254 254 258 261 262 265 267 270 271 275 276 279 281 280 282 283 283 286
216 219 219 221 221 222 222 223 222 223 225 227 228 229 230 233 234 232 235 239 239 241 246 249 251 253 257 260 261 264 265 267 268 270 274 277 277 281 278 280 282 285 285
212 220 221 220 223 223 224 226 225 224 226 227 229 230 231 230 230 232 234 237 242 244 247 247 249 253 258 260 262 265 267 267 268 271 275 278 279 283 280 279 285 286 287
213 218 221 221 221 224 224 227 228 227 226 228 230 230 231 231 229 231 233 234 238 242 245 248 252 254 255 258 260 262 263 264 268 270 274 274 276 280 278 284 286 290 292
214 218 223 222 222 223 226 227 228 230 228 228 229 230 230 231 233 234 234 236 240 244 247 249 253 256 256 258 258 260 261 264 266 269 273 276 279 277 280 287 285 291 293
215 219 223 224 225 223 225 228 229 230 230 229 229 230 231 231 231 232 235 237 241 244 248 249 251 251 253 255 260 260 262 263 266 269 271 274 275 277 278 285 290 284 289
213 218 223 223 225 224 225 227 229 229 229 230 229 231 232 230 230 234 235 239 239 242 245 248 249 254 256 256 258 260 262 264 264 268 269 271 274 278 283 285 285 287 289
213 217 222 222 223 224 224 224 227 231 230 229 228 230 229 230 230 233 235 237 239 243 243 245 248 250 252 255 259 261 264 265 265 266 269 273 276 279 282 284 286 287 289
215 217 220 224 224 226 226 225 226 230 231 228 226 229 227 229 230 234 235 239 241 243 246 249 251 253 253 255 256 258 262 265 266 270 273 275 278 280 283 284 286 292 292
219 217 219 222 224 226 227 226 228 229 232 232 231 226 227 226 232 237 241 242 245 247 248 251 253 255 256 259 259 261 263 266 268 269 273 275 277 280 283 288 289 291 292
217 221 220 221 225 225 226 228 230 231 233 235 233 230 229 228 230 236 238 241 244 252 252 253 257 259 262 264 265 266 268 270 274 272 276 279 280 283 285 288 288 289 291
218 220 222 223 226 228 227 229 230 231 234 236 235 234 233 231 231 236 239 240 243 244 249 249 250 254 259 262 264 268 270 272 272 274 275 277 280 282 285 287 289 289 292
219 220 222 225 227 229 229 229 231 232 234 236 237 236 236 234 236 236 238 243 246 245 246 251 253 257 259 261 262 264 268 271 272 275 277 279 282 284 287 290 288 291 292
219 221 223 225 227 229 231 231 232 232 234 236 237 238 239 239 237 237 242 243 246 248 251 253 257 258 258 261 262 267 271 272 272 275 276 280 283 286 287 286 287 293 293
224 223 223 225 227 229 232 233 233 234 236 237 238 240 240 239 241 242 244 246 249 249 251 256 258 258 263 265 266 266 268 272 274 276 277 282 282 282 283 285 292 293 293
222 226 225 224 226 230 232 234 235 235 235 237 239 240 241 242 243 245 247 248 250 251 252 255 256 257 261 265 267 269 271 271 273 275 276 278 279 280 280 281 287 288 289
223 224 227 228 229 230 230 234 235 238 238 237 239 241 242 244 245 247 249 251 252 253 255 257 258 260 261 263 265 268 271 272 274 275 277 277 279 281 282 284 285 288 289
225 226 227 228 230 232 233 234 237 238 238 239 240 241 243 245 246 248 250 252 253 255 257 258 259 260 262 263 265 268 271 273 273 275 276 279 280 281 283 285 286 286 289
227 228 227 228 231 231 234 235 237 240 240 242 242 244 245 246 247 249 250 251 253 254 256 259 261 263 265 266 266 268 269 272 274 275 277 278 280 281 283 284 285 288 289
229 230 230 230 232 233 235 236 238 239 244 243 245 245 247 248 249 250 252 253 254 254 257 258 260 261 263 265 265 266 270 270 272 274 275 276 277 279 280 281 284 285 285
229 230 232 232 232 235 237 240 241 242 243 245 249 250 251 252 252 254 255 255 255 257 259 261 262 262 264 266 269 268 271 270 270 273 274 275 275 276 277 279 281 281 285
228 231 232 233 234 235 238 239 241 245 245 247 248 248 249 253 256 256 256 257 259 261 262 265 267 268 269 270 272 272 272 270 269 269 272 274 274 276 278 279 279 280 280
228 230 231 233 234 236 238 239 240 242 244 246 247 250 252 253 254 256 258 258 260 263 265 266 268 268 271 272 274 274 273 272 273 271 271 273 275 277 280 281 280 281 282
Height
10458 10475 10492 10508 10525 10539 10555 10570 10583 10597 10609 10618 10631 10639 10645 10657 10662 10670 10679 10686 10694 10697 10703 10707 10711 10714 10715 10718 10721 10725 10728 10731 10733 10733 10734 10734 10733 10732 10729 10727 10724 10721 10717
10447 10466 10480 10495 10508 10522 10537 10554 10568 10581 10591 10599 10612 10622 10634 10646 10652 10660 10667 10673 10680 10685 10688 10692 10697 10700 10702 10704 10707 10711 10715 10718 10721 10721 10720 10720 10719 10718 10716 10714 10711 10707 10702
10431 10449 10462 10477 10493 10507 10523 10535 10549 10562 10572 10585 10597 10610 10620 10630 10637 10646 10652 10659 10664 10671 10675 10681 10684 10687 10689 10689 10692 10697 10703 10706 10707 10707 10705 10705 10706 10704 10703 10699 10696 10692 10688
10417 10434 10449 10463 10478 10493 10507 10519 10531 10544 10558 10571 10582 10591 10602 10613 10622 10630 10638 10646 10653 10657 10661 10666 10670 10673 10673 10673 10679 10685 10688 10690 10692 10692 10693 10692 10691 10688 10687 10684 10681 10677 10674
10407 10416 10431 10448 10461 10475 10489 10501 10515 10533 10543 10553 10564 10576 10588 10597 10608 10615 10624 10632 10638 10642 10647 10651 10654 10656 10656 10661 10667 10671 10674 10676 10675 10677 10678 10678 10675 10674 10672 10670 10667 10664 10660
10389 10396 10410 10431 10447 10460 10475 10486 10503 10517 10526 10539 10552 10562 10573 10583 10594 10599 10607 10615 10622 10627 10631 10635 10637 10639 10643 10648 10652 10655 10657 10658 10659 10659 10662 10662 10660 10660 10657 10654 10652 10649 10646
10373 10379 10397 10416 10431 10445 10461 10474 10487 10501 10512 10523 10535 10545 10556 10567 10575 10583 10590 10599 10605 10610 10614 10618 10619 10623 10628 10632 10635 10637 10639 10640 10642 10642 10645 10645 10645 10642 10641 10636 10635 10632 10626
10357 10366 10383 10401 10417 10434 10447 10458 10470 10482 10495 10508 10517 10526 10537 10547 10555 10565 10573 10582 10586 10591 10595 10599 10603 10609 10611 10615 10618 10620 10621 10622 10625 10627 10629 10629 10628 10624 10622 10620 10618 10614 10610
10344 10355 10368 10388 10401 10417 10429 10443 10455 10467 10479 10489 10501 10509 10518 10530 10537 10544 10558 10563 10569 10572 10577 10583 10587 10588 10592 10599 10602 10602 10604 10605 10608 10609 10611 10610 10609 10606 10603 10604 10600 10597 10593
10329 10341 10351 10371 10385 10401 10415 10428 10436 10448 10460 10471 10482 10491 10500 10511 10517 10526 10537 10542 10549 10555 10560 10565 10567 10571 10577 10581 10584 10587 10588 10588 10589 10591 10591 10589 10589 10588 10586 10585 10582 10578 10573
10312 10326 10336 10353 10368 10383 10395 10411 10420 10429 10441 10454 10467 10473 10482 10492 10500 10507 10516 10523 10527 10532 10539 10543 10547 10553 10559 10564 10567 10568 10569 10568 10568 10569 10571 10572 10570 10569 10567 10565 10563 10559 10553
10296 10310 10324 10337 10352 10365 10378 10392 10403 10411 10422 10434 10445 10454 10466 10475 10483 10489 10497 10502 10507 10512 10518 10523 10527 10534 10539 10543 10544 10545 10547 10547 10549 10550 10551 10551 10551 10550 10549 10545 10540 10536 10530
10277 10293 10307 10320 10333 10347 10360 10373 10383 10392 10403 10415 10428 10437 10446 10456 10465 10472 10479 10482 10487 10492 10496 10501 10507 10512 10517 10519 10523 10524 10527 10525 10527 10530 10529 10529 10531 10529 10526 10523 10518 10515 10509
10261 10273 10290 10304 10313 10327 10340 10353 10363 10375 10386 10395 10407 10416 10428 10438 10446 10452 10458 10465 10468 10472 10478 10484 10488 10492 10494 10495 10498 10500 10504 10506 10507 10509 10509 10509 10507 10506 10504 10501 10497 10493 10486
10242 10257 10272 10285 10295 10308 10322 10332 10343 10355 10365 10375 10385 10395 10406 10418 10424 10430 10437 10443 10451 10456 10460 10465 10469 10473 10475 10478 10480 10480 10481 10485 10487 10489 10488 10486 10485 10485 10482 10478 10476 10471 10464
10225 10239 10253 10265 10276 10286 10299 10312 10322 10333 10343 10354 10364 10374 10385 10395 10403 10409 10414 10422 10427 10433 10441 10445 10449 10451 10453 10455 10457 10458 10463 10465 10464 10463 10464 10464 10462 10459 10460 10456 10455 10448 10440
10205 10219 10232 10245 10256 10265 10276 10290 10299 10312 10321 10333 10343 10353 10364 10372 10379 10386 10391 10401 10406 10413 10420 10425 10428 10427 10428 10434 10436 10439 10441 10439 10439 10439 10440 10438 10440 10436 10440 10437 10435 10428 10422
10182 10197 10210 10223 10234 10244 10255 10266 10279 10291 10301 10310 10321 10330 10339 10348 10355 10363 10369 10379 10385 10389 10395 10398 10401 10403 10407 10410 10411 10413 10417 10417 10414 10415 10418 10416 10416 10415 10416 10414 10409 10404 10399
10161 10173 10189 10202 10213 10223 10233 10244 10256 10267 10278 10288 10298 10307 10314 10325 10333 10341 10349 10357 10362 10365 10369 10374 10377 10380 10384 10389 10389 10391 10393 10393 10393 10394 10395 10395 10395 10394 10393 10392 10390 10385 10380
10139 10154 10166 10178 10190 10201 10212 10221 10233 10242 10253 10264 10275 10282 10292 10302 10310 10317 10326 10330 10335 10340 10345 10349 10354 10358 10363 10364 10366 10367 10369 10368 10370 10370 10370 10372 10371 10371 10370 10367 10365 10362 10358
10116 10130 10142 10155 10166 10179 10190 10200 10208 10216 10229 10239 10250 10259 10267 10277 10286 10296 10298 10305 10310 10314 10320 10325 10331 10335 10338 10340 10343 10345 10346 10347 10346 10346 10346 10345 10346 10344 10345 10344 10340 10338 10335
10089 10103 10117 10130 10142 10155 10163 10174 10183 10192 10205 10213 10222 10233 10245 10252 10260 10269 10274 10278 10282 10289 10296 10301 10304 10308 10312 10315 10318 10320 10323 10322 10320 10321 10320 10320 10321 10319 10320 10319 10316 10314 10310
10062 10077 10091 10104 10116 10128 10138 10148 10159 10169 10174 10187 10195 10207 10216 10225 10233 10241 10247 10252 10257 10262 10269 10274 10280 10283 10286 10288 10291 10295 10296 10295 10296 10296 10296 10297 10297 10296 10295 10295 10294 10292 10287
10035 10049 10064 10078 10091 10102 10112 10124 10134 10140 10152 10161 10171 10179 10190 10197 10206 10214 10220 10223 10226 10233 10241 10248 10253 10255 10258 10260 10264 10265 10264 10268 10271 10271 10271 10272 10272 10271 10271 10270 10270 10266 10263
10008 10022 10036 10049 10062 10075 10086 10098 10106 10114 10124 10135 10144 10154 10163 10170 10176 10185 10191 10195 10199 10207 10213 10219 10222 10226 10228 10232 10233 10233 10237 10240 10243 10245 10245 10245 10245 10246 10245 10244 10243 10240 10237
9982 9994 10007 10021 10034 10046 10059 10068 10080 10087 10098 10108 10118 10126 10133 10142 10149 10156 10161 10166 10171 10178 10184 10191 10196 10197 10199 10201 10203 10207 10210 10213 10215 10216 10218 10220 10219 10218 10218 10216 10213 10210 10209